sat.trackr.live / text

‹ back to catalog

UNKNOWN

NORAD 87587

UNKNOWN UNKNOWN UNKNOWN

§ Identity

Operator
Country
Launch date
Launch site
Launch vehicle
Mass (kg)
RCS (m²)

External: N2YO · Heavens-Above

§ Orbital elements

Epoch: 2026-09-15T21:22:50.096640Z

Period
99.99 min
Inclination
74.0247°
Eccentricity
0.0021768
Mean motion
14.40185234 rev/d
Perigee alt
742.4 km
Apogee alt
773.4 km
Semi-major
7,136.0 km
B*
4.1854e-5
RAAN
310.3219°
Arg perigee
278.9562°
Mean anomaly
80.9129°
Rev number
67,370

§ Raw data

UNKNOWN1 87587U          26258.89085760  .00000106  00000+0  41854-4 0  99932 87587  74.0247 310.3219 0021768 278.9562  80.9129 14.40185234673707

JSON: /api/v1/satellites/87587 · /tle

For live sub-satellite position, see the globe view (requires WebGL).

§ Visibility from observer

Set your observer location to see the next 7 days of passes ≥ 10°. The values pass through the URL so the page stays shareable.

No JS? Fill the form by hand. The geolocation button needs JavaScript.